Hourly Data Report for October 08, 2019

All times are specified in Local Standard Time (LST). Add 1 hour to adjust for Daylight Saving Time where and when it is observed.

EUREKA CLIMATE
NUNAVUT
Current Station Operator: ECCC - MSC

79°59'21.000" N
85°56'02.000" W
10.00 m
2401199
71613
NEK

Download Data

Hourly Data (October 2019)
Hourly Data Report for October 8, 2019
TIME Temp Definition
°C
Dew Point Definition
°C
Rel Hum Definition
%
Wind Dir Definition
10's deg

Wind Spd Definition
km/h
Visibility Definition
km
Stn Press Definition
kPa
Hmdx Definition


Wind Chill Definition


Weather Definition


00:00 -3.8 -6.1 84 13 25   100.03   -11 LegendNANA
01:00 -3.9 -6.4 83 12 23   100.07   -11 LegendNANA
02:00 -3.6 -6.6 80 14 27   100.09   -11 LegendNANA
03:00 -3.4 -6.8 77 15 31   100.11   -11 LegendNANA
04:00 -3.4 -6.8 77 14 27   100.15   -11 LegendNANA
05:00 -3.7 -6.7 79 13 30   100.18   -11 LegendNANA
06:00 -3.9 -7.2 78 13 30   100.19   -12 LegendNANA
07:00 -4.0 -7.1 79 13 30   100.21   -12 LegendNANA
08:00 -3.9 -7.0 79 14 33   100.23   -12 LegendNANA
09:00 -3.8 -7.5 75 14 37   100.25   -12 LegendNANA
10:00 -3.6 -7.2 77 14 35   100.24   -12 LegendNANA
11:00 -3.9 -7.6 76 13 33   100.26   -12 LegendNANA
12:00 -4.0 -7.0 80 13 28   100.30   -11 LegendNANA
13:00 -3.9 -6.6 82 13 33   100.29   -12 LegendNANA
14:00 -3.7 -6.3 82 13 29   100.32   -11 LegendNANA
15:00 -3.5 -6.2 82 13 30   100.33   -11 LegendNANA
16:00 -3.4 -6.5 79 13 26   100.34   -10 LegendNANA
17:00 -3.3 -6.0 82 12 32   100.33   -11 LegendNANA
18:00 -3.0 -6.4 77 13 34   100.37   -11 LegendNANA
19:00 -3.2 -6.2 80 12 28   100.38   -10 LegendNANA
20:00 -3.0 -5.3 84 15 36   100.36   -11 LegendNANA
21:00 -3.0 -5.4 84 16 36   100.36   -11 LegendNANA
22:00 -3.1 -5.6 83 17 44   100.33   -12 LegendNANA
23:00 -3.3 -5.6 84 15 40   100.37   -12 LegendNANA

Notes on Data Quality.

Legend

  • E = Estimated
  • M = Missing
  • NA = Not Available
Date modified: